STARLINK-32868, 62854

Orbit data source: Space-Track

STARLINK-32868, 62854 is a payload satellite owned by SpaceX/Seattle (US) in LEO that was launched on Sat, 01 Feb 2025 UTC via an FALCON 9 launch vehicle from the Air Force Western Test Range (AFWTR). Payload-class satellites include a variety of spacecraft equipped with specific instruments for various scientific and technological missions. These include communications satellites like Starlink; space stations such as the ISS; scientific satellites like the Hubble; Earth observation satellites from companies like Planet Labs, Umbra, and HawkEye 360; GPS; miniature CubeSats for education and research; and military/defense satellites.

Loading next visibility...
Identifier
62854, 2025-022A
Orbit
LEO
Country
Flag of USUS
Related business
Manufacturer
SpaceX/Seattle
Mission
Operational Commercial Communications
Bus & Motor
STARLINK V2M, Unknown motor
Mass
730 kg wet, ~700 kg dry
Launch date (UTC)
2025-02-01 (1 year ago)
Launch vehicle
FALCON 9
Launch site
Air Force Western Test Range (AFWTR)
Object type
Payload
Rocket body
Debris
Shape & HBR
Box + 2 Pan, 17.7 m
Radar Cross Section
33.884 m², Large (>1 m²)

Expand to show TLE details & history
Last TLE update: 8 hours ago

TLE from 8 hours ago
0 STARLINK-32868
1 62854U 25022A   26037.00320530  .00055992  00000-0  18887-2 0  9991
2 62854  53.1575 276.4470 0001264  79.5381 280.5762 15.30195024 57865
Epoch: 2026-02-06T00:04Z
TLE epoch observation values (Epoch: 2026-02-06T00:04:36.937Z)
Latitude
-0.00005°
Longitude
139.14573°
Altitude
475.97 km
Speed
7.629 km/s
True Right ascension
18h 25m 47s
True Declination
0° 00' 00"
Sunlit
Object was in daylight at epoch
Visualization orbit readout
Latitude
Unknown
Longitude
Unknown
Altitude
Unknown
Speed
Unknown
Apparent Right ascension
Unknown
Apparent Declination
Unknown
Sunlit
N/A
Visualization observer readout
Local Sidereal Time
10:35:31
Azimuth
Unknown
Elevation
Unknown
Doppler factor
Unknown
Orbital elements
Apogee altitude
476.353 km
Perigee altitude
474.62 km
Semi-major axis
6,853.624 km
Eccentricity
0.00013
Inclination
53.1575°
RAAN
276.447°
Arg. of periapsis
79.5381°
True anomaly
280.56196°
Mean anomaly
280.5762°
Eccentric anomaly
280.56908°
Mean motion
3.82528 °/min
Orbital period
94.11 mins
BSTAR
0.0018887
Loading maneuver chart data...
Computing Atmospheric mass density...
Loading historical data...
Loading historical data...
Loading historical data...
Loading historical data...
Loading historical data...
Loading historical data...
Loading historical data...

Documentation

Showing up to 5 results
|